Telluride, CO

9:29 AM MST on December 06, 2019 (GMT -0700)
Telluride Regional

Weather History for KTEX - October, 2019

Change the Weather History Date:

Wednesday, October 2, 2019

  Actual Average Record
Temperature  
Mean Temperature 50 °F -  
Max Temperature 60 °F 56 °F 73 °F (2010)
Min Temperature 41 °F 36 °F 32 °F (2004)
Degree Days  
Heating Degree Days 14    
Moisture  
Dew Point 4 °F    
Average Humidity 18    
Maximum Humidity 36    
Minimum Humidity 6    
Precipitation  
Precipitation 0.00 in - - ()
Sea Level Pressure  
Sea Level Pressure 30.27 in    
Wind  
Wind Speed 10 mph (SSW)    
Max Wind Speed 16 mph    
Max Gust Speed 26 mph    
Visibility 10 miles    
Events      
Averages and records for this station are not official NWS values.
T = Trace of Precipitation, MM = Missing Value Source: NWS Daily Summary

Daily Weather History Graph

Daily Weather History Graph

Search for Another Location

Airport or City:

Astronomy

Oct. 02, 2019 Rise Set
Actual Time 7:08 AM MDT 6:53 PM MDT
Civil Twilight 6:41 AM MDT 7:19 PM MDT
Nautical Twilight 6:11 AM MDT 7:49 PM MDT
Astronomical Twilight 5:40 AM MDT 8:20 PM MDT
Moon 11:32 AM MDT (10/2) 9:53 PM MDT (10/2)
Length of Visible Light 12h 37m
Length of Day
11h 45m
Waxing Crescent, 21% of the Moon is Illuminated
Oct 2
Waxing Crescent
Oct 5
First Quarter
Oct 13
Full
Oct 21
Last Quarter
Oct 27
New

Hourly Weather History & Observations

Time (MDT) Temp. Windchill Dew Point Humidity Pressure Visibility Wind Dir Wind Speed Gust Speed Precip Events Conditions
12:35 AM 50.0 °F - 14.0 °F 24% 30.14 in 10.0 mi SW 12.7 mph 18.4 mph N/A   Clear
12:55 AM 50.0 °F - 14.0 °F 24% 30.14 in 10.0 mi SW 9.2 mph - N/A   Clear
1:15 AM 50.0 °F - 14.0 °F 24% 30.14 in 10.0 mi SSW 16.1 mph 23.0 mph N/A   Clear
1:35 AM 50.0 °F - 15.8 °F 26% 30.14 in 10.0 mi SSW 11.5 mph 24.2 mph N/A   Clear
1:55 AM 48.2 °F - 15.8 °F 27% 30.16 in 10.0 mi SW 13.8 mph 24.2 mph N/A   Clear
2:15 AM 48.2 °F - 15.8 °F 27% 30.16 in 10.0 mi SW 6.9 mph 21.9 mph N/A   Clear
2:35 AM 46.4 °F 41.5 °F 14.0 °F 27% 30.17 in 10.0 mi SSW 10.4 mph 26.5 mph N/A   Clear
2:55 AM 46.4 °F 40.7 °F 14.0 °F 27% 30.18 in 10.0 mi SSW 12.7 mph 18.4 mph N/A   Clear
3:15 AM 46.4 °F 41.1 °F 14.0 °F 27% 30.18 in 10.0 mi SSW 11.5 mph 24.2 mph N/A   Clear
3:35 AM 44.6 °F 39.2 °F 14.0 °F 29% 30.18 in 10.0 mi South 10.4 mph 20.7 mph N/A   Clear
3:55 AM 44.6 °F 38.1 °F 14.0 °F 29% 30.18 in 10.0 mi South 13.8 mph 20.7 mph N/A   Clear
4:15 AM 44.6 °F 39.7 °F 14.0 °F 29% 30.19 in 10.0 mi South 9.2 mph 21.9 mph N/A   Clear
4:35 AM 42.8 °F 38.6 °F 14.0 °F 31% 30.20 in 10.0 mi SSE 6.9 mph 17.3 mph N/A   Clear
4:55 AM 42.8 °F 37.5 °F 12.2 °F 29% 30.21 in 10.0 mi SSE 9.2 mph - N/A   Clear
5:15 AM 42.8 °F 36.6 °F 14.0 °F 31% 30.22 in 10.0 mi South 11.5 mph 17.3 mph N/A   Clear
5:35 AM 42.8 °F 36.6 °F 15.8 °F 34% 30.21 in 10.0 mi South 11.5 mph 23.0 mph N/A   Clear
5:55 AM 42.8 °F 35.8 °F 15.8 °F 34% 30.21 in 10.0 mi SSE 13.8 mph 25.3 mph N/A   Clear
6:15 AM 41.0 °F 33.9 °F 15.8 °F 36% 30.22 in 10.0 mi SSE 12.7 mph 18.4 mph N/A   Clear
6:35 AM 41.0 °F 34.3 °F 15.8 °F 36% 30.23 in 10.0 mi SE 11.5 mph 19.6 mph N/A   Clear
6:55 AM 41.0 °F 35.2 °F 14.0 °F 33% 30.24 in 10.0 mi SE 9.2 mph - N/A   Clear
7:15 AM 41.0 °F 34.7 °F 14.0 °F 33% 30.25 in 10.0 mi SSE 10.4 mph - N/A   Clear
7:35 AM 41.0 °F 34.7 °F 14.0 °F 33% 30.25 in 10.0 mi SE 10.4 mph - N/A   Clear
7:55 AM 41.0 °F 34.3 °F 12.2 °F 31% 30.26 in 10.0 mi South 11.5 mph 19.6 mph N/A   Clear
8:15 AM 42.8 °F 37.0 °F 10.4 °F 27% 30.26 in 10.0 mi SSE 10.4 mph 19.6 mph N/A   Clear
8:35 AM 42.8 °F 37.0 °F 6.8 °F 23% 30.27 in 10.0 mi SSE 10.4 mph 16.1 mph N/A   Clear
8:55 AM 44.6 °F 40.7 °F 5.0 °F 20% 30.28 in 10.0 mi SSE 6.9 mph - N/A   Clear
9:15 AM 44.6 °F - 1.4 °F 17% 30.29 in 10.0 mi Calm Calm - N/A   Clear
9:35 AM 46.4 °F 43.5 °F -0.4 °F 14% 30.29 in 10.0 mi SSE 5.8 mph - N/A   Clear
9:55 AM 46.4 °F 42.9 °F -0.4 °F 14% 30.29 in 10.0 mi SSE 6.9 mph - N/A   Clear
10:15 AM 50.0 °F - -2.2 °F 12% 30.29 in 10.0 mi South 3.5 mph - N/A   Clear
10:35 AM 51.8 °F - -4.0 °F 10% 30.29 in 10.0 mi Calm Calm - N/A   Clear
10:55 AM 51.8 °F - -9.4 °F 8% 30.29 in 10.0 mi WSW 6.9 mph - N/A   Clear
11:15 AM 51.8 °F - -13.0 °F 7% 30.28 in 10.0 mi West 15.0 mph 20.7 mph N/A   Clear
11:35 AM 53.6 °F - -13.0 °F 6% 30.29 in 10.0 mi West 13.8 mph 18.4 mph N/A   Clear
11:55 AM 55.4 °F - -9.4 °F 7% 30.29 in 10.0 mi West 9.2 mph 17.3 mph N/A   Clear
12:15 PM 55.4 °F - -9.4 °F 7% 30.29 in 10.0 mi West 9.2 mph 18.4 mph N/A   Clear
12:35 PM 55.4 °F - -9.4 °F 7% 30.29 in 10.0 mi Calm Calm - N/A   Clear
12:55 PM 59.0 °F - -7.6 °F 6% 30.29 in 10.0 mi West 9.2 mph 16.1 mph N/A   Clear
1:15 PM 57.2 °F - -7.6 °F 7% 30.28 in 10.0 mi WNW 5.8 mph - N/A   Clear
1:35 PM 59.0 °F - -7.6 °F 6% 30.28 in 10.0 mi West 12.7 mph 19.6 mph N/A   Clear
1:55 PM 59.0 °F - -7.6 °F 6% 30.28 in 10.0 mi WNW 4.6 mph - N/A   Clear
2:15 PM 60.8 °F - -5.8 °F 7% 30.28 in 10.0 mi West 11.5 mph 16.1 mph N/A   Clear
2:35 PM 60.8 °F - -5.8 °F 7% 30.28 in 10.0 mi West 10.4 mph 16.1 mph N/A   Clear
2:55 PM 60.8 °F - -7.6 °F 6% 30.28 in 10.0 mi Calm Calm - N/A   Clear
3:15 PM 60.8 °F - -5.8 °F 7% 30.28 in 10.0 mi Calm Calm - N/A   Clear
3:35 PM 60.8 °F - -5.8 °F 7% 30.28 in 10.0 mi WNW 8.1 mph 19.6 mph N/A   Clear
3:55 PM 60.8 °F - -4.0 °F 7% 30.28 in 10.0 mi West 8.1 mph - N/A   Clear
4:15 PM 60.8 °F - -2.2 °F 8% 30.28 in 10.0 mi West 11.5 mph - N/A   Clear
4:35 PM 60.8 °F - -2.2 °F 8% 30.29 in 10.0 mi West 10.4 mph - N/A   Clear
4:55 PM 60.8 °F - -2.2 °F 8% 30.29 in 10.0 mi West 9.2 mph - N/A   Clear
5:15 PM 59.0 °F - -0.4 °F 9% 30.29 in 10.0 mi West 11.5 mph - N/A   Clear
5:35 PM 59.0 °F - 1.4 °F 10% 30.30 in 10.0 mi West 10.4 mph - N/A   Clear
5:55 PM 57.2 °F - -0.4 °F 10% 30.30 in 10.0 mi West 12.7 mph 19.6 mph N/A   Clear
6:15 PM 55.4 °F - -0.4 °F 10% 30.31 in 10.0 mi West 15.0 mph 19.6 mph N/A   Clear
6:35 PM 53.6 °F - -0.4 °F 11% 30.31 in 10.0 mi West 10.4 mph - N/A   Clear
6:55 PM 51.8 °F - -0.4 °F 12% 30.32 in 10.0 mi SSW 3.5 mph - N/A   Clear
7:15 PM 51.8 °F - -0.4 °F 12% 30.33 in 10.0 mi WSW 3.5 mph - N/A   Clear
7:35 PM 50.0 °F - 1.4 °F 14% 30.33 in 10.0 mi Calm Calm - N/A   Clear
7:55 PM 46.4 °F 43.5 °F 3.2 °F 17% 30.34 in 10.0 mi SE 5.8 mph - N/A   Clear
8:15 PM 46.4 °F - 3.2 °F 17% 30.35 in 10.0 mi Calm Calm - N/A   Clear
8:35 PM 44.6 °F 41.4 °F 3.2 °F 18% 30.35 in 10.0 mi SE 5.8 mph - N/A   Clear
8:55 PM 44.6 °F 40.7 °F 3.2 °F 18% 30.36 in 10.0 mi SE 6.9 mph - N/A   Clear
9:15 PM 42.8 °F 38.0 °F 3.2 °F 19% 30.35 in 10.0 mi SE 8.1 mph - N/A   Clear
9:35 PM 42.8 °F 38.0 °F 3.2 °F 19% 30.35 in 10.0 mi SE 8.1 mph - N/A   Clear
9:55 PM 41.0 °F 36.4 °F 3.2 °F 21% 30.36 in 10.0 mi SE 6.9 mph - N/A   Clear
10:15 PM 41.0 °F 37.1 °F 3.2 °F 21% 30.35 in 10.0 mi SE 5.8 mph - N/A   Clear
10:35 PM 42.8 °F 37.5 °F 3.2 °F 19% 30.35 in 10.0 mi SE 9.2 mph - N/A   Clear
10:55 PM 41.0 °F 35.8 °F 3.2 °F 21% 30.35 in 10.0 mi SSE 8.1 mph - N/A   Clear
11:15 PM 41.0 °F 37.1 °F 3.2 °F 21% 30.35 in 10.0 mi SE 5.8 mph - N/A   Clear
11:35 PM 41.0 °F - 3.2 °F 21% 30.36 in 10.0 mi Calm Calm - N/A   Clear
11:55 PM 41.0 °F - 1.4 °F 19% 30.36 in 10.0 mi Calm Calm - N/A   Clear